Hourly Weather Barsukovo

Today, 19 June, Saturday

Time Temperature Precipitation Wind Pressure Humidity
00:00 +17°C° 0 mm 3 mps 754 mmHg 86%
01:00 +17°C° 0 mm 2 mps 754 mmHg 90%
02:00 +17°C° 0 mm 2 mps 754 mmHg 94%
03:00 +17°C° 0 mm 2 mps 754 mmHg 94%
04:00 +17°C° 0 mm 2 mps 754 mmHg 95%
05:00 +17°C° 0 mm 2 mps 754 mmHg 95%
06:00 +19°C° 0 mm 2 mps 754 mmHg 88%
07:00 +21°C° 0 mm 3 mps 754 mmHg 81%
08:00 +24°C° 0 mm 3 mps 754 mmHg 73%
09:00 +25°C° 0 mm 3 mps 754 mmHg 67%
10:00 +26°C° 0 mm 4 mps 754 mmHg 62%
11:00 +27°C° 0 mm 4 mps 754 mmHg 56%
12:00 +27°C° 0 mm 4 mps 753 mmHg 56%
13:00 +28°C° 0 mm 4 mps 753 mmHg 55%
14:00 +28°C° 0 mm 4 mps 753 mmHg 55%
15:00 +28°C° 0 mm 4 mps 753 mmHg 58%
16:00 +28°C° 0 mm 3 mps 752 mmHg 61%
17:00 +28°C° 0 mm 3 mps 752 mmHg 63%
18:00 +26°C° 0.2 mm 3 mps 752 mmHg 70%
19:00 +24°C° 0.2 mm 3 mps 752 mmHg 77%
20:00 +22°C° 0.2 mm 3 mps 752 mmHg 84%
21:00 +21°C° 0 mm 2 mps 752 mmHg 87%
22:00 +20°C° 0 mm 2 mps 752 mmHg 90%
23:00 +19°C° 0 mm 2 mps 752 mmHg 93%

Tomorrow, 20 June, Sunday

Time Temperature Precipitation Wind Pressure Humidity
00:00 +19°C° 0.7 mm 2 mps 752 mmHg 94%
01:00 +19°C° 0.7 mm 2 mps 752 mmHg 95%
02:00 +19°C° 0.7 mm 2 mps 752 mmHg 96%
03:00 +19°C° 0.2 mm 2 mps 752 mmHg 97%
04:00 +19°C° 0.2 mm 2 mps 752 mmHg 97%
05:00 +19°C° 0.2 mm 2 mps 752 mmHg 97%
06:00 +20°C° 0 mm 3 mps 752 mmHg 92%
07:00 +22°C° 0 mm 3 mps 752 mmHg 87%
08:00 +23°C° 0 mm 4 mps 752 mmHg 82%
09:00 +25°C° 0 mm 4 mps 752 mmHg 75%
10:00 +27°C° 0 mm 4 mps 751 mmHg 67%
11:00 +28°C° 0 mm 5 mps 751 mmHg 59%
12:00 +29°C° 0 mm 5 mps 751 mmHg 57%
13:00 +29°C° 0 mm 5 mps 751 mmHg 55%
14:00 +30°C° 0 mm 5 mps 750 mmHg 53%
15:00 +29°C° 0 mm 4 mps 750 mmHg 55%
16:00 +29°C° 0 mm 4 mps 750 mmHg 57%
17:00 +29°C° 0 mm 4 mps 749 mmHg 59%
18:00 +27°C° 0 mm 4 mps 749 mmHg 64%
19:00 +26°C° 0 mm 4 mps 749 mmHg 70%
20:00 +23°C° 0 mm 4 mps 749 mmHg 75%
21:00 +22°C° 0 mm 4 mps 749 mmHg 79%
22:00 +21°C° 0 mm 3 mps 749 mmHg 83%
23:00 +20°C° 0 mm 3 mps 750 mmHg 87%

Day after tomorrow, 21 June, Monday

Time Temperature Precipitation Wind Pressure Humidity
00:00 +19°C° 0 mm 3 mps 749 mmHg 90%
01:00 +18°C° 0 mm 3 mps 749 mmHg 93%
02:00 +18°C° 0 mm 3 mps 749 mmHg 96%
03:00 +18°C° 0 mm 3 mps 749 mmHg 95%
04:00 +18°C° 0 mm 3 mps 749 mmHg 94%
05:00 +19°C° 0 mm 3 mps 749 mmHg 93%
06:00 +20°C° 0 mm 3 mps 748 mmHg 86%
07:00 +22°C° 0 mm 4 mps 748 mmHg 80%
08:00 +23°C° 0 mm 4 mps 748 mmHg 74%
09:00 +25°C° 0 mm 4 mps 748 mmHg 69%
10:00 +27°C° 0 mm 4 mps 748 mmHg 65%
11:00 +28°C° 0 mm 4 mps 748 mmHg 61%
12:00 +28°C° 0 mm 4 mps 748 mmHg 61%
13:00 +28°C° 0 mm 4 mps 747 mmHg 62%
14:00 +28°C° 0 mm 3 mps 747 mmHg 62%
15:00 +28°C° 0 mm 3 mps 747 mmHg 64%
16:00 +28°C° 0 mm 3 mps 747 mmHg 66%
17:00 +28°C° 0 mm 2 mps 747 mmHg 68%
18:00 +27°C° 0.1 mm 2 mps 747 mmHg 72%
19:00 +26°C° 0.1 mm 2 mps 747 mmHg 77%
20:00 +25°C° 0.1 mm 2 mps 747 mmHg 81%
21:00 +24°C° 0 mm 2 mps 747 mmHg 84%
22:00 +23°C° 0 mm 2 mps 747 mmHg 87%
23:00 +21°C° 0 mm 2 mps 747 mmHg 90%

22 June, Tuesday

Time Temperature Precipitation Wind Pressure Humidity
00:00 +21°C° 0 mm 2 mps 747 mmHg 91%
01:00 +20°C° 0 mm 2 mps 747 mmHg 93%
02:00 +20°C° 0 mm 2 mps 747 mmHg 94%
03:00 +20°C° 0 mm 2 mps 747 mmHg 95%
04:00 +20°C° 0 mm 2 mps 747 mmHg 95%
05:00 +20°C° 0 mm 2 mps 748 mmHg 95%
06:00 +21°C° 0 mm 2 mps 748 mmHg 88%
07:00 +24°C° 0 mm 3 mps 748 mmHg 82%
08:00 +25°C° 0 mm 3 mps 748 mmHg 75%
09:00 +27°C° 0 mm 3 mps 748 mmHg 69%
10:00 +28°C° 0 mm 3 mps 748 mmHg 62%
11:00 +30°C° 0 mm 4 mps 748 mmHg 55%
12:00 +31°C° 0 mm 3 mps 748 mmHg 52%
13:00 +31°C° 0 mm 3 mps 748 mmHg 49%
14:00 +33°C° 0 mm 3 mps 748 mmHg 46%
15:00 +31°C° 0.2 mm 3 mps 748 mmHg 53%
16:00 +30°C° 0.2 mm 3 mps 748 mmHg 60%
17:00 +29°C° 0.2 mm 2 mps 748 mmHg 67%
18:00 +26°C° 1.8 mm 3 mps 748 mmHg 75%
19:00 +22°C° 1.8 mm 3 mps 748 mmHg 83%
20:00 +20°C° 1.8 mm 3 mps 748 mmHg 91%
21:00 +20°C° 1.7 mm 3 mps 749 mmHg 92%
22:00 +19°C° 1.7 mm 2 mps 749 mmHg 93%
23:00 +19°C° 1.7 mm 2 mps 749 mmHg 94%

23 June, Wednesday

Time Temperature Precipitation Wind Pressure Humidity
00:00 +19°C° 0.1 mm 2 mps 749 mmHg 95%
01:00 +19°C° 0.1 mm 2 mps 749 mmHg 95%
02:00 +19°C° 0.1 mm 2 mps 749 mmHg 96%
03:00 +19°C° 0 mm 2 mps 749 mmHg 96%
04:00 +19°C° 0 mm 2 mps 749 mmHg 95%
05:00 +19°C° 0 mm 2 mps 749 mmHg 95%
06:00 +21°C° 0 mm 2 mps 750 mmHg 90%
07:00 +23°C° 0 mm 2 mps 750 mmHg 85%
08:00 +25°C° 0 mm 3 mps 750 mmHg 80%
09:00 +26°C° 0 mm 3 mps 750 mmHg 73%
10:00 +28°C° 0 mm 3 mps 750 mmHg 66%
11:00 +29°C° 0 mm 3 mps 750 mmHg 59%
12:00 +30°C° 0 mm 2 mps 750 mmHg 56%
13:00 +31°C° 0 mm 2 mps 750 mmHg 54%
14:00 +32°C° 0 mm 2 mps 750 mmHg 51%
15:00 +32°C° 0 mm 2 mps 750 mmHg 52%
16:00 +32°C° 0 mm 2 mps 750 mmHg 53%
17:00 +32°C° 0 mm 2 mps 750 mmHg 54%
18:00 +31°C° 0 mm 2 mps 750 mmHg 61%
19:00 +29°C° 0 mm 2 mps 750 mmHg 68%
20:00 +27°C° 0 mm 2 mps 750 mmHg 75%
21:00 +26°C° 0 mm 3 mps 750 mmHg 77%
22:00 +25°C° 0 mm 3 mps 750 mmHg 80%
23:00 +24°C° 0 mm 3 mps 750 mmHg 82%

24 June, Thursday

Time Temperature Precipitation Wind Pressure Humidity
00:00 +22°C° 0 mm 3 mps 750 mmHg 85%
01:00 +22°C° 0 mm 3 mps 750 mmHg 89%
02:00 +21°C° 0 mm 2 mps 750 mmHg 92%
03:00 +21°C° 0 mm 2 mps 750 mmHg 93%
04:00 +21°C° 0 mm 2 mps 750 mmHg 93%
05:00 +21°C° 0 mm 2 mps 751 mmHg 94%
06:00 +24°C° 0 mm 2 mps 751 mmHg 88%
07:00 +26°C° 0 mm 3 mps 751 mmHg 82%
08:00 +27°C° 0 mm 3 mps 750 mmHg 76%
09:00 +28°C° 0.3 mm 3 mps 751 mmHg 74%
10:00 +29°C° 0.3 mm 3 mps 751 mmHg 72%
11:00 +30°C° 0.3 mm 3 mps 751 mmHg 69%
12:00 +30°C° 0.6 mm 3 mps 751 mmHg 66%
13:00 +31°C° 0.6 mm 3 mps 751 mmHg 64%
14:00 +31°C° 0.6 mm 3 mps 751 mmHg 61%
15:00 +31°C° 0.7 mm 3 mps 751 mmHg 63%
16:00 +30°C° 0.7 mm 4 mps 751 mmHg 66%
17:00 +29°C° 0.7 mm 5 mps 751 mmHg 69%
18:00 +27°C° 1.1 mm 4 mps 750 mmHg 74%
19:00 +24°C° 1.1 mm 3 mps 750 mmHg 79%
20:00 +21°C° 1.1 mm 2 mps 750 mmHg 83%
21:00 +21°C° 0.9 mm 2 mps 750 mmHg 87%
22:00 +20°C° 0.9 mm 2 mps 750 mmHg 91%
23:00 +20°C° 0.9 mm 2 mps 750 mmHg 94%
Show more